Snowfall_Accumulation
0.9 3.4 5.8 2.9 2.3 2.5 3.0 4.0 3.6 1.7 1.1 1.4 1.3 1.1 0.7 0.4 0.4 0.5 0.4 0.4 0.3 0.1 0.1 0.1 0.1 0.0 0.0 0.0 0.0 0.0 0.0 0.0 0.0 0.0 0.0 0.0 0.0 0.0 0.0 0.0 0.0 0.0 0.0 0.0
4.5 5.6 1.9 0.7 1.1 2.6 3.8 5.2 3.9 1.8 0.9 2.0 1.9 1.7 1.0 0.6 0.7 0.6 0.5 0.5 0.4 0.3 0.1 0.0 0.0 0.1 0.1 0.0 0.0 0.0 0.0 0.0 0.0 0.0 0.0 0.0 0.0 0.0 0.0 0.0 0.0 0.0 0.0 0.0
5.8 3.0 0.7 1.7 2.9 4.5 4.1 4.3 3.5 3.0 1.9 1.7 3.3 3.2 1.5 1.1 0.7 0.6 0.6 0.5 0.6 0.6 0.5 0.4 0.2 0.2 0.3 0.1 0.1 0.0 0.0 0.0 0.0 0.0 0.0 0.0 0.1 0.0 0.0 0.0 0.0 0.0 0.0 0.1
4.2 1.3 1.0 2.6 3.6 4.8 5.8 1.8 2.1 2.9 5.1 6.1 5.4 8.1 2.1 1.3 1.0 1.0 0.9 0.8 0.8 0.7 0.5 0.5 0.3 0.3 0.4 0.3 0.2 0.0 0.0 0.0 0.1 0.0 0.0 0.1 0.2 0.1 0.2 0.2 0.0 0.0 0.0 0.1
4.9 1.9 1.8 3.2 2.5 2.8 3.8 1.3 2.0 3.4 5.7 7.9 5.0 8.0 3.1 1.1 1.8 1.4 1.2 0.9 1.0 0.9 0.6 0.5 0.3 0.3 0.3 0.3 0.3 0.2 0.1 0.0 0.1 0.1 0.3 0.4 0.6 0.2 0.2 0.3 0.0 0.3 0.0 0.1
3.6 1.1 2.2 2.2 0.8 1.1 1.7 2.0 2.9 4.3 8.0 16.5 5.7 6.5 4.7 3.6 4.4 2.9 1.8 1.3 1.7 0.8 0.7 0.4 0.3 0.2 0.3 0.4 0.3 0.1 0.3 0.1 0.1 0.1 0.1 0.2 0.2 0.1 0.1 0.1 0.2 0.3 0.1 0.2
5.8 2.9 1.6 1.1 2.7 2.0 3.6 10.9 21.6 23.0 22.8 13.1 2.5 4.8 5.3 4.1 4.2 4.2 3.0 2.3 2.0 0.9 1.0 0.8 0.5 0.4 0.2 0.4 0.3 0.3 0.3 0.2 0.1 0.1 0.2 0.2 0.1 0.1 0.0 0.1 0.2 0.2 0.4 0.3
8.5 7.5 2.7 1.6 2.7 4.4 4.3 8.4 17.1 17.3 11.6 5.1 2.8 5.2 5.1 3.5 2.9 2.5 2.5 2.0 1.4 0.8 0.9 0.8 1.0 0.6 0.3 0.3 0.3 0.3 0.2 0.2 0.2 0.2 0.3 0.1 0.1 0.1 0.1 0.1 0.1 0.2 0.4 0.4
8.7 6.2 2.1 1.0 1.1 2.6 6.1 7.7 5.6 10.8 8.4 5.9 4.8 4.3 3.3 1.6 1.4 1.6 1.9 1.5 1.2 1.1 1.1 0.8 0.8 0.8 0.8 0.4 0.5 0.6 0.4 0.2 0.2 0.2 0.3 0.1 0.1 0.1 0.1 0.1 0.1 0.2 0.2 0.2
8.6 7.6 2.8 0.6 1.4 1.9 2.8 4.9 8.5 15.1 13.2 7.5 4.8 4.6 5.3 3.4 3.1 2.6 2.4 2.6 2.2 1.5 0.9 0.8 0.6 0.9 0.6 0.6 0.5 0.5 0.7 0.6 0.4 0.2 0.5 0.4 0.1 0.1 0.1 0.1 0.2 0.1 0.1 0.2
7.0 9.3 5.1 3.8 5.7 6.5 5.3 7.2 10.5 13.1 10.7 9.1 6.3 6.2 6.1 5.1 4.8 4.0 3.4 3.3 2.7 1.8 1.6 1.3 0.8 0.8 0.7 0.7 0.7 0.4 0.4 0.7 0.6 0.6 0.7 0.7 0.2 0.1 0.1 0.1 0.1 0.2 0.1 0.1
6.8 10.1 7.8 3.9 2.4 2.8 4.3 7.2 9.9 14.9 10.9 6.9 6.6 6.4 4.3 4.0 4.1 3.8 3.5 3.1 2.9 2.0 1.5 1.0 1.0 0.9 0.8 0.8 0.6 0.6 0.4 0.5 0.5 0.6 0.7 0.8 0.9 0.6 0.1 0.1 0.1 0.2 0.2 0.1
11.3 14.7 14.3 6.1 4.2 3.6 6.2 6.0 7.0 9.4 10.0 7.1 6.2 5.4 2.6 2.3 2.4 2.5 3.0 3.0 3.0 2.5 1.3 1.4 1.0 1.1 1.0 1.0 0.8 0.7 0.6 0.3 0.4 0.6 0.5 0.5 0.6 0.5 0.6 0.6 0.2 0.2 0.3 0.2
10.3 15.8 11.2 9.4 7.1 7.0 6.7 5.0 5.1 9.0 11.9 6.7 4.0 3.8 2.4 2.1 2.3 2.5 2.8 3.1 2.8 2.6 2.0 1.5 1.4 1.5 1.4 1.1 0.7 0.5 0.4 0.5 0.3 0.4 0.5 0.4 0.4 0.7 0.6 0.5 0.5 0.6 0.5 0.4
10.3 13.2 5.8 3.1 2.5 3.5 4.1 3.7 3.9 5.7 5.7 5.4 3.1 3.1 3.0 2.7 3.1 3.1 2.9 2.7 2.6 2.3 2.1 2.2 2.0 1.8 1.8 1.3 0.9 0.3 0.2 0.4 0.3 0.5 0.5 0.3 0.4 0.3 0.6 0.5 0.5 0.4 0.5 0.5
10.3 12.0 5.9 3.2 1.8 2.5 3.2 2.6 2.6 3.1 2.7 2.7 2.2 2.5 2.4 2.3 2.1 2.5 2.3 2.6 2.9 2.7 2.1 2.0 2.1 1.9 2.2 1.5 1.2 0.8 0.2 0.3 0.3 0.4 0.5 0.5 0.5 0.5 0.5 0.3 0.5 0.5 0.7 0.7
11.4 12.5 11.2 6.1 2.3 4.3 5.6 3.3 2.9 3.1 2.9 2.8 3.3 3.4 2.3 2.1 2.3 2.9 2.7 2.8 3.0 3.0 2.3 2.1 2.2 2.2 2.2 1.8 1.6 1.0 0.6 0.3 0.3 0.3 0.5 0.6 0.6 0.7 0.6 0.3 0.3 0.5 0.7 0.8
10.1 12.0 15.4 10.4 7.3 10.2 4.3 2.6 2.5 3.0 3.2 2.9 2.8 2.3 2.5 2.7 2.6 2.7 2.7 3.1 3.0 2.9 2.7 2.2 2.1 2.1 1.9 1.6 1.4 1.3 0.5 0.5 0.4 0.4 0.5 0.8 0.6 0.8 0.5 0.4 0.4 0.6 0.6 0.7
4.9 11.1 17.0 14.5 10.1 5.0 2.7 2.7 3.7 4.5 4.5 3.1 2.4 1.7 1.6 1.7 1.5 2.6 2.1 2.4 3.2 2.4 2.7 2.3 2.0 2.0 1.4 1.2 1.2 1.3 0.9 0.5 0.5 0.5 0.5 0.8 0.6 0.8 0.6 0.6 0.7 0.8 1.0 0.7
4.4 8.9 17.7 15.7 11.6 5.6 3.7 2.4 2.7 3.9 5.7 3.0 2.3 2.2 1.9 2.2 3.6 3.5 2.3 2.5 2.3 1.9 1.9 1.9 1.5 1.4 1.3 1.1 0.8 1.2 1.3 0.8 0.7 0.8 0.7 0.7 0.5 0.6 0.7 0.8 0.8 0.7 0.9 1.1
9.7 14.9 17.5 13.0 10.4 3.9 2.8 2.4 2.3 6.3 7.2 3.3 2.9 3.0 2.9 3.6 4.5 3.7 2.7 2.7 2.2 2.0 1.8 1.5 1.4 1.3 1.2 1.2 0.9 1.1 0.9 1.1 0.9 0.7 0.8 0.9 0.7 0.7 0.8 0.7 0.6 0.7 0.9 1.1
7.6 10.9 10.9 10.1 11.0 5.4 2.9 3.6 6.4 7.1 3.7 3.0 2.8 2.8 3.0 3.1 2.7 2.4 2.5 2.8 2.6 2.1 1.7 1.5 1.6 1.5 1.2 1.2 1.1 1.2 1.3 1.1 1.0 0.8 0.8 1.0 0.8 0.8 0.7 0.9 0.8 0.8 0.8 1.3
5.7 7.3 8.4 8.0 6.1 3.9 3.3 4.4 4.3 3.6 3.3 2.7 2.7 2.5 2.7 2.7 2.7 2.4 2.6 2.8 3.1 2.4 1.8 1.5 1.6 1.6 1.0 1.2 1.4 1.5 1.0 1.0 1.0 1.0 0.9 0.9 0.8 0.8 0.9 1.0 1.1 1.0 1.5 1.7
4.4 3.9 5.5 5.4 3.6 2.7 2.3 2.4 2.1 2.1 2.5 2.2 2.3 2.4 2.5 2.7 2.5 2.4 2.5 2.8 3.0 2.3 2.1 1.8 1.8 1.9 1.7 1.4 1.5 1.6 1.3 1.2 1.3 1.1 0.8 1.0 1.0 1.1 1.1 1.1 1.3 1.7 2.1 3.1
3.8 4.1 4.5 4.0 2.5 2.1 1.9 1.9 1.9 1.5 1.6 1.6 1.7 1.8 2.1 2.3 2.5 2.5 2.6 2.9 3.1 2.5 2.3 2.1 2.1 2.3 2.1 1.6 1.5 1.5 1.5 1.4 1.4 1.1 0.8 0.9 1.1 1.4 1.3 1.4 1.5 2.1 2.4 4.0
2.5 3.4 4.4 3.7 2.5 3.1 2.5 1.9 1.6 1.6 1.5 1.7 2.0 1.9 1.5 1.9 2.4 2.3 2.4 2.6 2.8 3.1 2.5 2.3 2.1 2.3 2.3 1.8 1.6 1.5 1.6 1.7 1.7 1.1 0.9 1.0 1.4 1.4 1.3 1.4 1.5 1.3 1.8 2.2